Year,Month,Day,Hour,Minute,Value (Times are PST for temperature in C)
2016,03,30,00,00,9.90
2016,03,30,00,01,9.90
2016,03,30,00,02,9.80
2016,03,30,00,03,9.80
2016,03,30,00,04,9.80
2016,03,30,00,05,9.70
2016,03,30,00,06,9.70
2016,03,30,00,07,9.70
2016,03,30,00,08,9.70
2016,03,30,00,09,9.70
2016,03,30,00,10,9.70
2016,03,30,00,11,9.70
2016,03,30,00,12,9.70
2016,03,30,00,13,9.80
2016,03,30,00,14,9.80
2016,03,30,00,15,9.90
2016,03,30,00,16,9.90
2016,03,30,00,17,9.90
2016,03,30,00,18,9.90
2016,03,30,00,19,9.90
2016,03,30,00,20,9.90
2016,03,30,00,21,10.00
2016,03,30,00,22,10.10
2016,03,30,00,23,10.10
2016,03,30,00,24,10.10
2016,03,30,00,25,10.10
2016,03,30,00,26,10.10
2016,03,30,00,27,10.10
2016,03,30,00,28,10.10
2016,03,30,00,29,10.10
2016,03,30,00,30,10.10
2016,03,30,00,31,10.10
2016,03,30,00,32,10.10
2016,03,30,00,33,10.10
2016,03,30,00,34,10.10
2016,03,30,00,35,10.10
2016,03,30,00,36,10.10
2016,03,30,00,37,10.10
2016,03,30,00,38,10.10
2016,03,30,00,39,10.10
2016,03,30,00,40,10.10
2016,03,30,00,41,10.10
2016,03,30,00,42,10.10
2016,03,30,00,43,10.10
2016,03,30,00,44,10.10
2016,03,30,00,45,10.10
2016,03,30,00,46,10.10
2016,03,30,00,47,10.10
2016,03,30,00,48,10.10
2016,03,30,00,49,10.10
2016,03,30,00,50,10.10
2016,03,30,00,51,10.10
2016,03,30,00,52,10.10
2016,03,30,00,53,10.10
2016,03,30,00,54,10.10
2016,03,30,00,55,10.10
2016,03,30,00,56,10.10
2016,03,30,00,57,10.00
2016,03,30,00,58,9.90
2016,03,30,00,59,9.90
2016,03,30,01,00,9.90
2016,03,30,01,01,9.90
2016,03,30,01,02,9.90
2016,03,30,01,03,9.90
2016,03,30,01,04,9.90
2016,03,30,01,05,9.90
2016,03,30,01,06,9.90
2016,03,30,01,07,9.90
2016,03,30,01,08,9.90
2016,03,30,01,09,9.90
2016,03,30,01,10,9.90
2016,03,30,01,11,9.90
2016,03,30,01,12,9.90
2016,03,30,01,13,9.90
2016,03,30,01,14,9.90
2016,03,30,01,15,9.90
2016,03,30,01,16,9.90
2016,03,30,01,17,9.90
2016,03,30,01,18,9.90
2016,03,30,01,19,9.90
2016,03,30,01,20,9.90
2016,03,30,01,21,9.90
2016,03,30,01,22,9.90
2016,03,30,01,23,9.90
2016,03,30,01,24,9.90
2016,03,30,01,25,9.90
2016,03,30,01,26,9.90
2016,03,30,01,27,9.90
2016,03,30,01,28,9.90
2016,03,30,01,29,9.90
2016,03,30,01,30,9.90
2016,03,30,01,31,9.90
2016,03,30,01,32,9.90
2016,03,30,01,33,9.80
2016,03,30,01,34,9.80
2016,03,30,01,35,9.80
2016,03,30,01,36,9.80
2016,03,30,01,37,9.80
2016,03,30,01,38,9.80
2016,03,30,01,39,9.80
2016,03,30,01,40,9.80
2016,03,30,01,41,9.80
2016,03,30,01,42,9.90
2016,03,30,01,43,9.90
2016,03,30,01,44,9.90
2016,03,30,01,45,9.90
2016,03,30,01,46,9.90
2016,03,30,01,47,9.90
2016,03,30,01,48,10.00
2016,03,30,01,49,10.10
2016,03,30,01,50,10.10
2016,03,30,01,51,10.10
2016,03,30,01,52,10.10
2016,03,30,01,53,10.10
2016,03,30,01,54,10.10
2016,03,30,01,55,10.10
2016,03,30,01,56,10.10
2016,03,30,01,57,10.20
2016,03,30,01,58,10.20
2016,03,30,01,59,10.20
2016,03,30,02,00,10.20
2016,03,30,02,01,10.20
2016,03,30,02,02,10.20
2016,03,30,02,03,10.30
2016,03,30,02,04,10.30
2016,03,30,02,05,10.30
2016,03,30,02,06,10.30
2016,03,30,02,07,10.30
2016,03,30,02,08,10.40
2016,03,30,02,09,10.40
2016,03,30,02,10,10.40
2016,03,30,02,11,10.40
2016,03,30,02,12,10.40
2016,03,30,02,13,10.40
2016,03,30,02,14,10.40
2016,03,30,02,15,10.40
2016,03,30,02,16,10.40
2016,03,30,02,17,10.40
2016,03,30,02,18,10.40
2016,03,30,02,19,10.40
2016,03,30,02,20,10.40
2016,03,30,02,21,10.40
2016,03,30,02,22,10.40
2016,03,30,02,23,10.40
2016,03,30,02,24,10.40
2016,03,30,02,25,10.40
2016,03,30,02,26,10.40
2016,03,30,02,27,10.40
2016,03,30,02,28,10.40
2016,03,30,02,29,10.40
2016,03,30,02,30,10.40
2016,03,30,02,31,10.40
2016,03,30,02,32,10.40
2016,03,30,02,33,10.50
2016,03,30,02,34,10.60
2016,03,30,02,35,10.60
2016,03,30,02,36,10.60
2016,03,30,02,37,10.60
2016,03,30,02,38,10.60
2016,03,30,02,39,10.60
2016,03,30,02,40,10.60
2016,03,30,02,41,10.60
2016,03,30,02,42,10.60
2016,03,30,02,43,10.60
2016,03,30,02,44,10.60
2016,03,30,02,45,10.60
2016,03,30,02,46,10.60
2016,03,30,02,47,10.60
2016,03,30,02,48,10.60
2016,03,30,02,49,10.60
2016,03,30,02,50,10.60
2016,03,30,02,51,10.60
2016,03,30,02,52,10.60
2016,03,30,02,53,10.60
2016,03,30,02,54,10.60
2016,03,30,02,55,10.60
2016,03,30,02,56,10.60
2016,03,30,02,57,10.60
2016,03,30,02,58,10.60
2016,03,30,02,59,10.70
2016,03,30,03,00,10.70
2016,03,30,03,01,10.70
2016,03,30,03,02,10.80
2016,03,30,03,03,10.80
2016,03,30,03,04,10.80
2016,03,30,03,05,10.80
2016,03,30,03,06,10.80
2016,03,30,03,07,10.80
2016,03,30,03,08,10.90
2016,03,30,03,09,10.80
2016,03,30,03,10,10.80
2016,03,30,03,11,10.80
2016,03,30,03,12,10.80
2016,03,30,03,13,10.80
2016,03,30,03,14,10.80
2016,03,30,03,15,10.80
2016,03,30,03,16,10.80
2016,03,30,03,17,10.70
2016,03,30,03,18,10.70
2016,03,30,03,19,10.70
2016,03,30,03,20,10.70
2016,03,30,03,21,10.70
2016,03,30,03,22,10.70
2016,03,30,03,23,10.60
2016,03,30,03,24,10.60
2016,03,30,03,25,10.60
2016,03,30,03,26,10.60
2016,03,30,03,27,10.60
2016,03,30,03,28,10.60
2016,03,30,03,29,10.60
2016,03,30,03,30,10.60
2016,03,30,03,31,10.60
2016,03,30,03,32,10.60
2016,03,30,03,33,10.60
2016,03,30,03,34,10.60
2016,03,30,03,35,10.60
2016,03,30,03,36,10.60
2016,03,30,03,37,10.60
2016,03,30,03,38,10.60
2016,03,30,03,39,10.60
2016,03,30,03,40,10.60
2016,03,30,03,41,10.60
2016,03,30,03,42,10.60
2016,03,30,03,43,10.60
2016,03,30,03,44,10.60
2016,03,30,03,45,10.70
2016,03,30,03,46,10.70
2016,03,30,03,47,10.70
2016,03,30,03,48,10.70
2016,03,30,03,49,10.70
2016,03,30,03,50,10.70
2016,03,30,03,51,10.70
2016,03,30,03,52,10.70
2016,03,30,03,53,10.70
2016,03,30,03,54,10.80
2016,03,30,03,55,10.80
2016,03,30,03,56,10.80
2016,03,30,03,57,10.80
2016,03,30,03,58,10.80
2016,03,30,03,59,10.70
2016,03,30,04,00,10.70
2016,03,30,04,01,10.70
2016,03,30,04,02,10.70
2016,03,30,04,03,10.60
2016,03,30,04,04,10.60
2016,03,30,04,05,10.60
2016,03,30,04,06,10.60
2016,03,30,04,07,10.50
2016,03,30,04,08,10.40
2016,03,30,04,09,10.40
2016,03,30,04,10,10.40
2016,03,30,04,11,10.30
2016,03,30,04,12,10.30
2016,03,30,04,13,10.20
2016,03,30,04,14,10.20
2016,03,30,04,15,10.20
2016,03,30,04,16,10.10
2016,03,30,04,17,10.10
2016,03,30,04,18,10.10
2016,03,30,04,19,10.10
2016,03,30,04,20,10.00
2016,03,30,04,21,9.90
2016,03,30,04,22,9.90
2016,03,30,04,23,9.90
2016,03,30,04,24,9.90
2016,03,30,04,25,9.90
2016,03,30,04,26,9.90
2016,03,30,04,27,9.90
2016,03,30,04,28,9.90
2016,03,30,04,29,9.90
2016,03,30,04,30,9.90
2016,03,30,04,31,9.90
2016,03,30,04,32,9.90
2016,03,30,04,33,9.90
2016,03,30,04,34,9.90
2016,03,30,04,35,9.80
2016,03,30,04,36,9.80
2016,03,30,04,37,9.80
2016,03,30,04,38,9.80
2016,03,30,04,39,9.80
2016,03,30,04,40,9.80
2016,03,30,04,41,9.80
2016,03,30,04,42,9.80
2016,03,30,04,43,9.80
2016,03,30,04,44,9.80
2016,03,30,04,45,9.80
2016,03,30,04,46,9.80
2016,03,30,04,47,9.70
2016,03,30,04,48,9.70
2016,03,30,04,49,9.70
2016,03,30,04,50,9.70
2016,03,30,04,51,9.70
2016,03,30,04,52,9.70
2016,03,30,04,53,9.70
2016,03,30,04,54,9.70
2016,03,30,04,55,9.70
2016,03,30,04,56,9.70
2016,03,30,04,57,9.70
2016,03,30,04,58,9.70
2016,03,30,04,59,9.70
2016,03,30,05,00,9.60
2016,03,30,05,01,9.60
2016,03,30,05,02,9.60
2016,03,30,05,03,9.60
2016,03,30,05,04,9.50
2016,03,30,05,05,9.50
2016,03,30,05,06,9.50
2016,03,30,05,07,9.40
2016,03,30,05,08,9.40
2016,03,30,05,09,9.30
2016,03,30,05,10,9.30
2016,03,30,05,11,9.30
2016,03,30,05,12,9.20
2016,03,30,05,13,9.20
2016,03,30,05,14,9.20
2016,03,30,05,15,9.20
2016,03,30,05,16,9.20
2016,03,30,05,17,9.10
2016,03,30,05,18,9.10
2016,03,30,05,19,9.10
2016,03,30,05,20,9.00
2016,03,30,05,21,9.00
2016,03,30,05,22,9.00
2016,03,30,05,23,9.00
2016,03,30,05,24,9.00
2016,03,30,05,25,9.00
2016,03,30,05,26,9.00
2016,03,30,05,27,9.00
2016,03,30,05,28,8.90
2016,03,30,05,29,8.90
2016,03,30,05,30,8.90
2016,03,30,05,31,8.90
2016,03,30,05,32,8.90
2016,03,30,05,33,8.90
2016,03,30,05,34,8.90
2016,03,30,05,35,8.90
2016,03,30,05,36,8.90
2016,03,30,05,37,8.90
2016,03,30,05,38,8.90
2016,03,30,05,39,8.90
2016,03,30,05,40,8.90
2016,03,30,05,41,8.90
2016,03,30,05,42,8.90
2016,03,30,05,43,8.90
2016,03,30,05,44,8.90
2016,03,30,05,45,8.90
2016,03,30,05,46,8.80
2016,03,30,05,47,8.80
2016,03,30,05,48,8.70
2016,03,30,05,49,8.70
2016,03,30,05,50,8.70
2016,03,30,05,51,8.70
2016,03,30,05,52,8.70
2016,03,30,05,53,8.60
2016,03,30,05,54,8.60
2016,03,30,05,55,8.60
2016,03,30,05,56,8.60
2016,03,30,05,57,8.50
2016,03,30,05,58,8.50
2016,03,30,05,59,8.50
2016,03,30,06,00,8.50
2016,03,30,06,01,8.40
2016,03,30,06,02,8.40
2016,03,30,06,03,8.40
2016,03,30,06,04,8.40
2016,03,30,06,05,8.40
2016,03,30,06,06,8.40
2016,03,30,06,07,8.40
2016,03,30,06,08,8.50
2016,03,30,06,09,8.50
2016,03,30,06,10,8.50
2016,03,30,06,11,8.50
2016,03,30,06,12,8.50
2016,03,30,06,13,8.50
2016,03,30,06,14,8.50
2016,03,30,06,15,8.50
2016,03,30,06,16,8.50
2016,03,30,06,17,8.50
2016,03,30,06,18,8.50
2016,03,30,06,19,8.40
2016,03,30,06,20,8.40
2016,03,30,06,21,8.30
2016,03,30,06,22,8.30
2016,03,30,06,23,8.20
2016,03,30,06,24,8.20
2016,03,30,06,25,8.20
2016,03,30,06,26,8.20
2016,03,30,06,27,8.20
2016,03,30,06,28,8.20
2016,03,30,06,29,8.20
2016,03,30,06,30,8.10
2016,03,30,06,31,8.10
2016,03,30,06,32,8.00
2016,03,30,06,33,8.00
2016,03,30,06,34,8.00
2016,03,30,06,35,7.90
2016,03,30,06,36,7.90
2016,03,30,06,37,7.80
2016,03,30,06,38,7.80
2016,03,30,06,39,7.80
2016,03,30,06,40,7.80
2016,03,30,06,41,7.80
2016,03,30,06,42,7.70
2016,03,30,06,43,7.70
2016,03,30,06,44,7.70
2016,03,30,06,45,7.70
2016,03,30,06,46,7.70
2016,03,30,06,47,7.80
2016,03,30,06,48,7.80
2016,03,30,06,49,7.80
2016,03,30,06,50,7.80
2016,03,30,06,51,7.80
2016,03,30,06,52,7.70
2016,03,30,06,53,7.70
2016,03,30,06,54,7.70
2016,03,30,06,55,7.60
2016,03,30,06,56,7.60
2016,03,30,06,57,7.60
2016,03,30,06,58,7.50
2016,03,30,06,59,7.50
2016,03,30,07,00,7.50
2016,03,30,07,01,7.50
2016,03,30,07,02,7.50
2016,03,30,07,03,7.50
2016,03,30,07,04,7.50
2016,03,30,07,05,7.50
2016,03,30,07,06,7.50
2016,03,30,07,07,7.40
2016,03,30,07,08,7.40
2016,03,30,07,09,7.40
2016,03,30,07,10,7.30
2016,03,30,07,11,7.30
2016,03,30,07,12,7.30
2016,03,30,07,13,7.30
2016,03,30,07,14,7.30
2016,03,30,07,15,7.20
2016,03,30,07,16,7.20
2016,03,30,07,17,7.20
2016,03,30,07,18,7.20
2016,03,30,07,19,7.20
2016,03,30,07,20,7.20
2016,03,30,07,21,7.20
2016,03,30,07,22,7.10
2016,03,30,07,23,7.10
2016,03,30,07,24,7.20
2016,03,30,07,25,7.20
2016,03,30,07,26,7.20
2016,03,30,07,27,7.20
2016,03,30,07,28,7.30
2016,03,30,07,29,7.30
2016,03,30,07,30,7.30
2016,03,30,07,31,7.30
2016,03,30,07,32,7.30
2016,03,30,07,33,7.30
2016,03,30,07,34,7.40
2016,03,30,07,35,7.40
2016,03,30,07,36,7.50
2016,03,30,07,37,7.50
2016,03,30,07,38,7.60
2016,03,30,07,39,7.60
2016,03,30,07,40,7.70
2016,03,30,07,41,7.70
2016,03,30,07,42,7.70
2016,03,30,07,43,7.80
2016,03,30,07,44,7.80
2016,03,30,07,45,7.80
2016,03,30,07,46,7.90
2016,03,30,07,47,8.00
2016,03,30,07,48,8.10
2016,03,30,07,49,8.20
2016,03,30,07,50,8.20
2016,03,30,07,51,8.20
2016,03,30,07,52,8.20
2016,03,30,07,53,8.30
2016,03,30,07,54,8.30
2016,03,30,07,55,8.30
2016,03,30,07,56,8.30
2016,03,30,07,57,8.30
2016,03,30,07,58,8.30
2016,03,30,07,59,8.40
2016,03,30,08,00,8.40
2016,03,30,08,01,8.40
2016,03,30,08,02,8.50
2016,03,30,08,03,8.50
2016,03,30,08,04,8.50
2016,03,30,08,05,8.60
2016,03,30,08,06,8.70
2016,03,30,08,07,8.70
2016,03,30,08,08,8.70
2016,03,30,08,09,8.80
2016,03,30,08,10,8.90
2016,03,30,08,11,9.00
2016,03,30,08,12,9.00
2016,03,30,08,13,9.20
2016,03,30,08,14,9.30
2016,03,30,08,15,9.30
2016,03,30,08,16,9.50
2016,03,30,08,17,9.60
2016,03,30,08,18,9.70
2016,03,30,08,19,9.70
2016,03,30,08,20,9.80
2016,03,30,08,21,9.90
2016,03,30,08,22,9.90
2016,03,30,08,23,10.00
2016,03,30,08,24,10.10
2016,03,30,08,25,10.20
2016,03,30,08,26,10.30
2016,03,30,08,27,10.40
2016,03,30,08,28,10.50
2016,03,30,08,29,10.60
2016,03,30,08,30,10.70
2016,03,30,08,31,10.80
2016,03,30,08,32,10.80
2016,03,30,08,33,10.90
2016,03,30,08,34,10.90
2016,03,30,08,35,11.00
2016,03,30,08,36,11.10
2016,03,30,08,37,11.20
2016,03,30,08,38,11.30
2016,03,30,08,39,11.40
2016,03,30,08,40,11.40
2016,03,30,08,41,11.40
2016,03,30,08,42,11.40
2016,03,30,08,43,11.40
2016,03,30,08,44,11.40
2016,03,30,08,45,11.40
2016,03,30,08,46,11.40
2016,03,30,08,47,11.40
2016,03,30,08,48,11.40
2016,03,30,08,49,11.40
2016,03,30,08,50,11.50
2016,03,30,08,51,11.50
2016,03,30,08,52,11.40
2016,03,30,08,53,11.40
2016,03,30,08,54,11.40
2016,03,30,08,55,11.40
2016,03,30,08,56,11.40
2016,03,30,08,57,11.50
2016,03,30,08,58,11.60
2016,03,30,08,59,11.60
2016,03,30,09,00,11.60
2016,03,30,09,01,11.70
2016,03,30,09,02,11.80
2016,03,30,09,03,11.80
2016,03,30,09,04,11.90
2016,03,30,09,05,11.90
2016,03,30,09,06,12.00
2016,03,30,09,07,12.00
2016,03,30,09,08,12.10
2016,03,30,09,09,12.10
2016,03,30,09,10,12.20
2016,03,30,09,11,12.20
2016,03,30,09,12,12.30
2016,03,30,09,13,12.30
2016,03,30,09,14,12.30
2016,03,30,09,15,12.30
2016,03,30,09,16,12.40
2016,03,30,09,17,12.50
2016,03,30,09,18,12.50
2016,03,30,09,19,12.60
2016,03,30,09,20,12.60
2016,03,30,09,21,12.70
2016,03,30,09,22,12.80
2016,03,30,09,23,12.80
2016,03,30,09,24,12.80
2016,03,30,09,25,12.80
2016,03,30,09,26,12.90
2016,03,30,09,27,12.90
2016,03,30,09,28,13.00
2016,03,30,09,29,13.00
2016,03,30,09,30,13.10
2016,03,30,09,31,13.10
2016,03,30,09,32,13.20
2016,03,30,09,33,13.20
2016,03,30,09,34,13.30
2016,03,30,09,35,13.30
2016,03,30,09,36,13.40
2016,03,30,09,37,13.40
2016,03,30,09,38,13.40
2016,03,30,09,39,13.40
2016,03,30,09,40,13.40
2016,03,30,09,41,13.40
2016,03,30,09,42,13.30
2016,03,30,09,43,13.30
2016,03,30,09,44,13.30
2016,03,30,09,45,13.30
2016,03,30,09,46,13.30
2016,03,30,09,47,13.30
2016,03,30,09,48,13.20
2016,03,30,09,49,13.20
2016,03,30,09,50,13.20
2016,03,30,09,51,13.20
2016,03,30,09,52,13.10
2016,03,30,09,53,13.10
2016,03,30,09,54,13.20
2016,03,30,09,55,13.20
2016,03,30,09,56,13.20
2016,03,30,09,57,13.20
2016,03,30,09,58,13.20
2016,03,30,09,59,13.20
2016,03,30,10,00,13.20
2016,03,30,10,01,13.20
2016,03,30,10,02,13.20
2016,03,30,10,03,13.20
2016,03,30,10,04,13.20
2016,03,30,10,05,13.20
2016,03,30,10,06,13.10
2016,03,30,10,07,13.10
2016,03,30,10,08,13.10
2016,03,30,10,09,13.10
2016,03,30,10,10,13.20
2016,03,30,10,11,13.20
2016,03,30,10,12,13.30
2016,03,30,10,13,13.30
2016,03,30,10,14,13.30
2016,03,30,10,15,13.30
2016,03,30,10,16,13.40
2016,03,30,10,17,13.50
2016,03,30,10,18,13.50
2016,03,30,10,19,13.60
2016,03,30,10,20,13.60
2016,03,30,10,21,13.60
2016,03,30,10,22,13.60
2016,03,30,10,23,13.60
2016,03,30,10,24,13.70
2016,03,30,10,25,13.70
2016,03,30,10,26,13.70
2016,03,30,10,27,13.70
2016,03,30,10,28,13.70
2016,03,30,10,29,13.70
2016,03,30,10,30,13.70
2016,03,30,10,31,13.70
2016,03,30,10,32,13.70
2016,03,30,10,33,13.70
2016,03,30,10,34,13.60
2016,03,30,10,35,13.60
2016,03,30,10,36,13.60
2016,03,30,10,37,13.70
2016,03,30,10,38,13.70
2016,03,30,10,39,13.70
2016,03,30,10,40,13.70
2016,03,30,10,41,13.70
2016,03,30,10,42,13.70
2016,03,30,10,43,13.70
2016,03,30,10,44,13.70
2016,03,30,10,45,13.70
2016,03,30,10,46,13.70
2016,03,30,10,47,13.70
2016,03,30,10,48,13.70
2016,03,30,10,49,13.80
2016,03,30,10,50,13.80
2016,03,30,10,51,13.90
2016,03,30,10,52,13.90
2016,03,30,10,53,14.00
2016,03,30,10,54,14.00
2016,03,30,10,55,13.90
2016,03,30,10,56,13.90
2016,03,30,10,57,13.80
2016,03,30,10,58,13.80
2016,03,30,10,59,13.80
2016,03,30,11,00,13.80
2016,03,30,11,01,13.80
2016,03,30,11,02,13.80
2016,03,30,11,03,13.80
2016,03,30,11,04,13.80
2016,03,30,11,05,13.80
2016,03,30,11,06,13.80
2016,03,30,11,07,13.90
2016,03,30,11,08,14.00
2016,03,30,11,09,14.00
2016,03,30,11,10,14.10
2016,03,30,11,11,14.20
2016,03,30,11,12,14.20
2016,03,30,11,13,14.20
2016,03,30,11,14,14.20
2016,03,30,11,15,14.20
2016,03,30,11,16,14.20
2016,03,30,11,17,14.30
2016,03,30,11,18,14.40
2016,03,30,11,19,14.50
2016,03,30,11,20,14.60
2016,03,30,11,21,14.70
2016,03,30,11,22,14.80
2016,03,30,11,23,14.80
2016,03,30,11,24,14.80
2016,03,30,11,25,14.80
2016,03,30,11,26,14.80
2016,03,30,11,27,14.80
2016,03,30,11,28,14.90
2016,03,30,11,29,14.90
2016,03,30,11,30,14.90
2016,03,30,11,31,15.00
2016,03,30,11,32,15.00
2016,03,30,11,33,15.10
2016,03,30,11,34,15.10
2016,03,30,11,35,15.20
2016,03,30,11,36,15.30
2016,03,30,11,37,15.30
2016,03,30,11,38,15.30
2016,03,30,11,39,15.30
2016,03,30,11,40,15.40
2016,03,30,11,41,15.40
2016,03,30,11,42,15.40
2016,03,30,11,43,15.40
2016,03,30,11,44,15.50
2016,03,30,11,45,15.50
2016,03,30,11,46,15.50
2016,03,30,11,47,15.60
2016,03,30,11,48,15.70
2016,03,30,11,49,15.80
2016,03,30,11,50,15.80
2016,03,30,11,51,15.80
2016,03,30,11,52,15.80
2016,03,30,11,53,15.80
2016,03,30,11,54,15.80
2016,03,30,11,55,15.80
2016,03,30,11,56,15.80
2016,03,30,11,57,15.70
2016,03,30,11,58,15.70
2016,03,30,11,59,15.70
2016,03,30,12,00,15.80
2016,03,30,12,01,15.80
2016,03,30,12,02,16.00
2016,03,30,12,03,16.10
2016,03,30,12,04,16.10
2016,03,30,12,05,16.20
2016,03,30,12,06,16.30
2016,03,30,12,07,16.30
2016,03,30,12,08,16.40
2016,03,30,12,09,16.50
2016,03,30,12,10,16.60
2016,03,30,12,11,16.50
2016,03,30,12,12,16.40
2016,03,30,12,13,16.40
2016,03,30,12,14,16.30
2016,03,30,12,15,16.30
2016,03,30,12,16,16.20
2016,03,30,12,17,16.10
2016,03,30,12,18,16.00
2016,03,30,12,19,15.90
2016,03,30,12,20,15.90
2016,03,30,12,21,15.90
2016,03,30,12,22,15.90
2016,03,30,12,23,16.00
2016,03,30,12,24,16.10
2016,03,30,12,25,15.90
2016,03,30,12,26,15.90
2016,03,30,12,27,15.90
2016,03,30,12,28,15.90
2016,03,30,12,29,16.00
2016,03,30,12,30,16.10
2016,03,30,12,31,16.20
2016,03,30,12,32,16.20
2016,03,30,12,33,16.20
2016,03,30,12,34,16.20
2016,03,30,12,35,16.20
2016,03,30,12,36,16.30
2016,03,30,12,37,16.30
2016,03,30,12,38,16.40
2016,03,30,12,39,16.40
2016,03,30,12,40,16.40
2016,03,30,12,41,16.30
2016,03,30,12,42,16.30
2016,03,30,12,43,16.30
2016,03,30,12,44,16.30
2016,03,30,12,45,16.40
2016,03,30,12,46,16.40
2016,03,30,12,47,16.40
2016,03,30,12,48,16.50
2016,03,30,12,49,16.60
2016,03,30,12,50,16.70
2016,03,30,12,51,16.70
2016,03,30,12,52,16.70
2016,03,30,12,53,16.70
2016,03,30,12,54,16.70
2016,03,30,12,55,16.70
2016,03,30,12,56,16.80
2016,03,30,12,57,16.90
2016,03,30,12,58,16.90
2016,03,30,12,59,17.00
2016,03,30,13,00,17.00
2016,03,30,13,01,17.00
2016,03,30,13,02,17.10
2016,03,30,13,03,17.20
2016,03,30,13,04,17.20
2016,03,30,13,05,17.30
2016,03,30,13,06,17.30
2016,03,30,13,07,17.30
2016,03,30,13,08,17.30
2016,03,30,13,09,17.40
2016,03,30,13,10,17.40
2016,03,30,13,11,17.50
2016,03,30,13,12,17.60
2016,03,30,13,13,17.60
2016,03,30,13,14,17.60
2016,03,30,13,15,17.60
2016,03,30,13,16,17.70
2016,03,30,13,17,17.70
2016,03,30,13,18,17.70
2016,03,30,13,19,17.60
2016,03,30,13,20,17.50
2016,03,30,13,21,17.50
2016,03,30,13,22,17.60
2016,03,30,13,23,17.60
2016,03,30,13,24,17.60
2016,03,30,13,25,17.60
2016,03,30,13,26,17.60
2016,03,30,13,27,17.70
2016,03,30,13,28,17.80
2016,03,30,13,29,17.80
2016,03,30,13,30,17.80
2016,03,30,13,31,17.80
2016,03,30,13,32,17.80
2016,03,30,13,33,17.80
2016,03,30,13,34,17.70
2016,03,30,13,35,17.70
2016,03,30,13,36,17.70
2016,03,30,13,37,17.60
2016,03,30,13,38,17.60
2016,03,30,13,39,17.60
2016,03,30,13,40,17.50
2016,03,30,13,41,17.40
2016,03,30,13,42,17.30
2016,03,30,13,43,17.30
2016,03,30,13,44,17.20
2016,03,30,13,45,17.20
2016,03,30,13,46,17.20
2016,03,30,13,47,17.20
2016,03,30,13,48,17.20
2016,03,30,13,49,17.20
2016,03,30,13,50,17.20
2016,03,30,13,51,17.10
2016,03,30,13,52,17.20
2016,03,30,13,53,17.20
2016,03,30,13,54,17.30
2016,03,30,13,55,17.30
2016,03,30,13,56,17.30
2016,03,30,13,57,17.30
2016,03,30,13,58,17.30
2016,03,30,13,59,17.30
2016,03,30,14,00,17.30
2016,03,30,14,01,17.40
2016,03,30,14,02,17.40
2016,03,30,14,03,17.30
2016,03,30,14,04,17.30
2016,03,30,14,05,17.30
2016,03,30,14,06,17.30
2016,03,30,14,07,17.30
2016,03,30,14,08,17.30
2016,03,30,14,09,17.30
2016,03,30,14,10,17.30
2016,03,30,14,11,17.30
2016,03,30,14,12,17.30
2016,03,30,14,13,17.40
2016,03,30,14,14,17.30
2016,03,30,14,15,17.30
2016,03,30,14,16,17.30
2016,03,30,14,17,17.30
2016,03,30,14,18,17.30
2016,03,30,14,19,17.30
2016,03,30,14,20,17.30
2016,03,30,14,21,17.30
2016,03,30,14,22,17.30
2016,03,30,14,23,17.30
2016,03,30,14,24,17.40
2016,03,30,14,25,17.50
2016,03,30,14,26,17.50
2016,03,30,14,27,17.60
2016,03,30,14,28,17.60
2016,03,30,14,29,17.70
2016,03,30,14,30,17.70
2016,03,30,14,31,17.60
2016,03,30,14,32,17.60
2016,03,30,14,33,17.60
2016,03,30,14,34,17.70
2016,03,30,14,35,17.70
2016,03,30,14,36,17.70
2016,03,30,14,37,17.60
2016,03,30,14,38,17.60
2016,03,30,14,39,17.70
2016,03,30,14,40,17.70
2016,03,30,14,41,17.70
2016,03,30,14,42,17.70
2016,03,30,14,43,17.60
2016,03,30,14,44,17.60
2016,03,30,14,45,17.60
2016,03,30,14,46,17.70
2016,03,30,14,47,17.70
2016,03,30,14,48,17.80
2016,03,30,14,49,17.80
2016,03,30,14,50,17.80
2016,03,30,14,51,17.80
2016,03,30,14,52,17.70
2016,03,30,14,53,17.60
2016,03,30,14,54,17.50
2016,03,30,14,55,17.40
2016,03,30,14,56,17.40
2016,03,30,14,57,17.30
2016,03,30,14,58,17.30
2016,03,30,14,59,17.30
2016,03,30,15,00,17.30
2016,03,30,15,01,17.30
2016,03,30,15,02,17.30
2016,03,30,15,03,17.30
2016,03,30,15,04,17.30
2016,03,30,15,05,17.30
2016,03,30,15,06,17.30
2016,03,30,15,07,17.40
2016,03,30,15,08,17.50
2016,03,30,15,09,17.50
2016,03,30,15,10,17.60
2016,03,30,15,11,17.60
2016,03,30,15,12,17.70
2016,03,30,15,13,17.70
2016,03,30,15,14,17.80
2016,03,30,15,15,17.90
2016,03,30,15,16,17.90
2016,03,30,15,17,17.90
2016,03,30,15,18,17.90
2016,03,30,15,19,17.90
2016,03,30,15,20,17.90
2016,03,30,15,21,17.90
2016,03,30,15,22,18.10
2016,03,30,15,23,18.10
2016,03,30,15,24,18.10
2016,03,30,15,25,18.20
2016,03,30,15,26,18.20
2016,03,30,15,27,18.20
2016,03,30,15,28,18.20
2016,03,30,15,29,18.20
2016,03,30,15,30,18.20
2016,03,30,15,31,18.20
2016,03,30,15,32,18.20
2016,03,30,15,33,18.30
2016,03,30,15,34,18.30
2016,03,30,15,35,18.40
2016,03,30,15,36,18.50
2016,03,30,15,37,18.60
2016,03,30,15,38,18.60
2016,03,30,15,39,18.70
2016,03,30,15,40,18.70
2016,03,30,15,41,18.70
2016,03,30,15,42,18.70
2016,03,30,15,43,18.70
2016,03,30,15,44,18.70
2016,03,30,15,45,18.80
2016,03,30,15,46,18.80
2016,03,30,15,47,18.90
2016,03,30,15,48,18.90
2016,03,30,15,49,19.00
2016,03,30,15,50,19.10
2016,03,30,15,51,19.10
2016,03,30,15,52,19.20
2016,03,30,15,53,19.30
2016,03,30,15,54,19.30
2016,03,30,15,55,19.30
2016,03,30,15,56,19.40
2016,03,30,15,57,19.40
2016,03,30,15,58,19.40
2016,03,30,15,59,19.50
2016,03,30,16,00,19.60
2016,03,30,16,01,19.60
2016,03,30,16,02,19.70
2016,03,30,16,03,19.70
2016,03,30,16,04,19.70
2016,03,30,16,05,19.70
2016,03,30,16,06,19.80
2016,03,30,16,07,19.80
2016,03,30,16,08,19.70
2016,03,30,16,09,19.60
2016,03,30,16,10,19.60
2016,03,30,16,11,19.50
2016,03,30,16,12,19.40
2016,03,30,16,13,19.50
2016,03,30,16,14,19.50
2016,03,30,16,15,19.50
2016,03,30,16,16,19.40
2016,03,30,16,17,19.40
2016,03,30,16,18,19.40
2016,03,30,16,19,19.40
2016,03,30,16,20,19.40
2016,03,30,16,21,19.40
2016,03,30,16,22,19.30
2016,03,30,16,23,19.30
2016,03,30,16,24,19.30
2016,03,30,16,25,19.30
2016,03,30,16,26,19.20
2016,03,30,16,27,19.20
2016,03,30,16,28,19.20
2016,03,30,16,29,19.20
2016,03,30,16,30,19.20
2016,03,30,16,31,19.10
2016,03,30,16,32,19.10
2016,03,30,16,33,19.10
2016,03,30,16,34,19.10
2016,03,30,16,35,19.10
2016,03,30,16,36,19.10
2016,03,30,16,37,19.10
2016,03,30,16,38,19.10
2016,03,30,16,39,19.10
2016,03,30,16,40,19.20
2016,03,30,16,41,19.20
2016,03,30,16,42,19.30
2016,03,30,16,43,19.40
2016,03,30,16,44,19.40
2016,03,30,16,45,19.50
2016,03,30,16,46,19.50
2016,03,30,16,47,19.50
2016,03,30,16,48,19.60
2016,03,30,16,49,19.60
2016,03,30,16,50,19.70
2016,03,30,16,51,19.70
2016,03,30,16,52,19.70
2016,03,30,16,53,19.70
2016,03,30,16,54,19.80
2016,03,30,16,55,19.80
2016,03,30,16,56,19.80
2016,03,30,16,57,19.90
2016,03,30,16,58,19.90
2016,03,30,16,59,19.90
2016,03,30,17,00,20.00
2016,03,30,17,01,20.10
2016,03,30,17,02,20.10
2016,03,30,17,03,20.10
2016,03,30,17,04,20.10
2016,03,30,17,05,20.10
2016,03,30,17,06,20.10
2016,03,30,17,07,20.20
2016,03,30,17,08,20.20
2016,03,30,17,09,20.20
2016,03,30,17,10,20.20
2016,03,30,17,11,20.20
2016,03,30,17,12,20.20
2016,03,30,17,13,20.20
2016,03,30,17,14,20.30
2016,03,30,17,15,20.30
2016,03,30,17,16,20.30
2016,03,30,17,17,20.30
2016,03,30,17,18,20.20
2016,03,30,17,19,20.20
2016,03,30,17,20,20.20
2016,03,30,17,21,20.20
2016,03,30,17,22,20.20
2016,03,30,17,23,20.20
2016,03,30,17,24,20.20
2016,03,30,17,25,20.20
2016,03,30,17,26,20.20
2016,03,30,17,27,20.20
2016,03,30,17,28,20.20
2016,03,30,17,29,20.20
2016,03,30,17,30,20.30
2016,03,30,17,31,20.40
2016,03,30,17,32,20.50
2016,03,30,17,33,20.50